This is the latest recevied weather packets stored in our database for station/object SA6BET-2. If no packets are shown the sender has not sent any weather packets the latest 10 day(s).
| Time | Temp. | Humidity | Pressure | Rain* | Wind** | Luminosity | Snow |
|---|---|---|---|---|---|---|---|
| 1777899860 | 27.78° C | 100% | 1013.8 hPa | - | - | - | - |
| 1777898959 | 27.22° C | 100% | 1014 hPa | - | - | - | - |
| 1777898059 | 28.89° C | 94% | 1014.1 hPa | - | - | - | - |
| 1777897159 | 28.33° C | 100% | 1014.2 hPa | - | - | - | - |
| 1777896274 | 26.11° C | 100% | 1014.5 hPa | - | - | - | - |
| 1777895370 | 25.56° C | 100% | 1014.8 hPa | - | - | - | - |
| 1777894470 | 27.22° C | 100% | 1014.8 hPa | - | - | - | - |
| 1777893573 | 26.67° C | 100% | 1015.1 hPa | - | - | - | - |
| 1777892670 | 26.11° C | 100% | 1015.4 hPa | - | - | - | - |
| 1777891769 | 26.11° C | 100% | 1015.7 hPa | - | - | - | - |
| 1777890869 | 25° C | 100% | 1015.8 hPa | - | - | - | - |
| 1777889972 | 25° C | 100% | 1015.8 hPa | - | - | - | - |
| 1777889075 | 25.56° C | 100% | 1015.8 hPa | - | - | - | - |
| 1777888169 | 25° C | 100% | 1015.9 hPa | - | - | - | - |
| 1777887270 | 23.89° C | 100% | 1016 hPa | - | - | - | - |
| 1777886367 | 22.22° C | 100% | 1016.1 hPa | - | - | - | - |
| 1777885470 | 21.11° C | 100% | 1016 hPa | - | - | - | - |
| 1777884566 | 21.67° C | 100% | 1016.1 hPa | - | - | - | - |
| 1777883670 | 19.44° C | 100% | 1016 hPa | - | - | - | - |
| 1777882770 | 18.89° C | 100% | 1016 hPa | - | - | - | - |
| 1777881866 | 18.89° C | 100% | 1016 hPa | - | - | - | - |
| 1777880972 | 18.33° C | 100% | 1016.1 hPa | - | - | - | - |
| 1777880065 | 18.89° C | 100% | 1016 hPa | - | - | - | - |
| 1777879170 | 18.89° C | 100% | 1016 hPa | - | - | - | - |
| 1777878269 | 18.33° C | 100% | 1015.9 hPa | - | - | - | - |
* Rain since midnight (hover to see other rain measurements)
** Current wind speed in m/s (hover to see current wind gust speed)